Flag for Russia Weather past 2 weeks in Murmansk, Russia

Now
27 °F

Sunny.


Feels Like: 27 °F
Forecast: 15 / 21 °F
Wind: 1 mph from North

Location: Murmansk Airport

Current Time: Jan 27, 2015 at 12:31:39 PM

Latest Report: Jan 27, 2015 at 12:00 PM


Visibility: 10 mi

Pressure: 29.30 "Hg

Humidity: 80%

Dew point: 21 °F

Location of MurmanskLocation

Historic Weather in Murmansk — Graph

°F

Murmansk temperature yesterday

Maximum temperature yesterday: 27 °F (at 9:00 PM)
Minimum temperature yesterday: -4 °F (at 9:00 AM)
Average temperature yesterday: 11 °F

Past Weeks' High & Low Weather Summary

 TemperatureHumidityPressure
High30 °F (Jan 27, 8:00 AM)100% (Jan 18, 8:30 AM)30.45 "Hg (Jan 18, 8:30 AM)
Low-31 °F (Jan 13, 3:30 AM)56% (Jan 21, 12:00 AM)29.03 "Hg (Jan 16, 10:30 PM)
Average4 °F79%29.75 "Hg
* Reported Jan 12 11:00 AM — Jan 27 11:00 AM, Murmansk, Weather by CustomWeather, © 2014

Note: Actual official high and low records may vary slightly from our data, if they occured in-between our weather recording intervals... More about our weather records

Advertising

Murmansk weather history for previous 24 hours

 ConditionsComfort  
Time TempWeatherWind HumidityBarometerVisibility
11:00 AM
Jan 27
28 °FPassing clouds.6 mph80%29.30 "HgN/A
10:30 AM30 °FPassing clouds.8 mph80%29.30 "HgN/A
10:00 AM30 °FPassing clouds.10 mph75%29.30 "HgN/A
9:30 AM30 °FPassing clouds.10 mph80%29.30 "HgN/A
9:00 AM30 °FPassing clouds.8 mph80%29.30 "HgN/A
8:30 AM30 °FPassing clouds.8 mph80%29.33 "HgN/A
8:00 AM30 °FPassing clouds.8 mph80%29.33 "HgN/A
7:30 AM28 °FPassing clouds.6 mph86%29.33 "HgN/A
7:00 AM28 °FPassing clouds.6 mph86%29.33 "HgN/A
6:30 AM28 °FPassing clouds.6 mph86%29.36 "HgN/A
6:00 AM28 °FPassing clouds.6 mph80%29.36 "HgN/A
5:30 AM28 °FPassing clouds.8 mph80%29.36 "HgN/A
5:00 AM28 °FPassing clouds.8 mph80%29.36 "HgN/A
4:30 AM28 °FPassing clouds.8 mph80%29.36 "HgN/A
4:00 AM28 °FPassing clouds.8 mph80%29.39 "HgN/A
3:30 AM28 °FPassing clouds.8 mph80%29.39 "HgN/A
3:00 AM28 °FPassing clouds.8 mph80%29.42 "HgN/A
2:30 AM28 °FPassing clouds.6 mph80%29.42 "HgN/A
2:00 AM28 °FPassing clouds.6 mph80%29.42 "HgN/A
1:30 AM28 °FSnow flurries. Passing clouds.3 mph80%29.45 "HgN/A
1:00 AM27 °FSnow flurries. Passing clouds.6 mph86%29.45 "HgN/A
12:30 AM27 °FSnow flurries. Passing clouds.6 mph86%29.45 "HgN/A
12:00 AM27 °FSnow flurries. Passing clouds.6 mph86%29.45 "HgN/A
11:30 PM
Jan 26
27 °FSnow flurries. Passing clouds.8 mph93%29.47 "Hg6 mi
11:00 PM27 °FSnow flurries. Passing clouds.8 mph93%29.47 "Hg3 mi
10:30 PM27 °FSnow flurries. Passing clouds.8 mph93%29.47 "Hg1 mi
10:00 PM27 °FSnow flurries. Passing clouds.8 mph86%29.47 "Hg2 mi
9:30 PM27 °FSnow flurries. Passing clouds.8 mph86%29.50 "Hg2 mi
9:00 PM27 °FSnow flurries. Passing clouds.8 mph86%29.50 "Hg3 mi
8:30 PM25 °FSnow flurries. Passing clouds.8 mph93%29.50 "Hg3 mi
8:00 PM25 °FSnow flurries. Passing clouds.10 mph93%29.50 "Hg2 mi
7:30 PM25 °FSnow flurries. Passing clouds.10 mph86%29.53 "Hg2 mi
7:00 PM25 °FSnow flurries. Passing clouds.10 mph86%29.53 "Hg1 mi
6:30 PM23 °FSnow showers. Passing clouds.13 mph93%29.53 "Hg1 mi
6:00 PM21 °FSnow showers. Passing clouds.15 mph93%29.56 "Hg1 mi
5:30 PM19 °FSnow showers. Passing clouds.15 mph93%29.56 "Hg1 mi
5:00 PM19 °FSnow flurries. Passing clouds.10 mph86%29.59 "Hg1 mi
4:30 PM18 °FSnow flurries. Passing clouds.10 mph86%29.59 "Hg2 mi
4:00 PM16 °FSnow flurries. Partly sunny.8 mph86%29.62 "Hg6 mi
3:30 PM16 °FSunny.10 mph86%29.65 "Hg10 mi
3:00 PM16 °FSunny.10 mph93%29.65 "Hg10 mi
2:30 PM18 °FSunny.8 mph93%29.68 "Hg10 mi
2:00 PM14 °FSunny.3 mph92%29.68 "Hg10 mi
1:30 PM14 °FSunny.3 mph85%29.68 "Hg10 mi
1:00 PM12 °FSunny.1 mph85%29.68 "Hg10 mi
12:30 PM9 °FSunny.1 mph85%29.71 "Hg10 mi
12:00 PM7 °FSunny.3 mph85%29.71 "Hg10 mi
Weather by CustomWeather, © 2014

See weather overviewHow to use our weather pages